Time,TemperatureF,DewpointF,PressureIn,WindDirection,WindDirectionDegrees,WindSpeedMPH,WindSpeedGustMPH,Humidity,HourlyPrecipIn,Conditions,Clouds,dailyrainin,SoftwareType,DateUTC
2013-11-01 00:00:00,63.6,59.0,29.84,SW,218,4.0,6.0,85,0.00,,---,0.00,VWS V14.01,2013-11-01 04:00:00,
2013-11-01 00:05:00,63.2,59.6,29.81,West,269,1.0,5.0,88,0.00,,---,0.00,VWS V14.01,2013-11-01 04:05:00,
2013-11-01 00:10:00,63.3,60.0,29.80,SSW,213,0.0,5.0,89,0.00,,---,0.00,VWS V14.01,2013-11-01 04:10:00,
2013-11-01 00:15:00,63.3,60.0,29.80,SSW,198,2.0,5.0,89,0.00,,---,0.00,VWS V14.01,2013-11-01 04:15:00,
2013-11-01 00:20:00,63.3,60.0,29.80,SSW,192,5.0,6.0,89,0.00,,---,0.00,VWS V14.01,2013-11-01 04:20:00,
2013-11-01 00:25:00,63.6,60.6,29.80,SSW,209,4.0,12.0,90,0.00,,---,0.00,VWS V14.01,2013-11-01 04:25:00,
2013-11-01 00:30:00,63.9,60.9,29.79,West,265,3.0,7.0,90,0.00,,---,0.00,VWS V14.01,2013-11-01 04:30:00,
2013-11-01 00:35:00,63.9,60.6,29.78,SW,223,4.0,6.0,89,0.00,,---,0.00,VWS V14.01,2013-11-01 04:35:00,
2013-11-01 00:40:00,63.9,60.9,29.77,West,269,1.0,7.0,90,0.00,,---,0.00,VWS V14.01,2013-11-01 04:40:00,
2013-11-01 00:45:00,63.9,60.9,29.76,WSW,257,4.0,4.0,90,0.00,,---,0.00,VWS V14.01,2013-11-01 04:45:00,
2013-11-01 00:50:00,63.8,60.8,29.77,SW,235,2.0,6.0,90,0.00,,---,0.00,VWS V14.01,2013-11-01 04:50:00,
2013-11-01 00:55:00,64.0,61.3,29.76,South,175,7.0,10.0,91,0.00,,---,0.00,VWS V14.01,2013-11-01 04:55:00,
2013-11-01 01:00:00,64.1,61.4,29.76,SW,232,0.0,8.0,91,0.00,,---,0.00,VWS V14.01,2013-11-01 05:00:00,
2013-11-01 01:05:00,64.3,61.9,29.75,WSW,257,4.0,10.0,92,0.00,,---,0.00,VWS V14.01,2013-11-01 05:05:00,
2013-11-01 01:10:00,64.5,62.1,29.76,SW,216,3.0,7.0,92,0.00,,---,0.00,VWS V14.01,2013-11-01 05:10:00,
2013-11-01 01:15:00,64.7,62.3,29.75,SW,217,11.0,11.0,92,0.00,,---,0.00,VWS V14.01,2013-11-01 05:15:00,
2013-11-01 01:20:00,64.9,62.5,29.75,SW,218,9.0,12.0,92,0.00,,---,0.00,VWS V14.01,2013-11-01 05:20:00,
2013-11-01 01:25:00,65.2,62.8,29.75,SW,232,3.0,11.0,92,0.00,,---,0.00,VWS V14.01,2013-11-01 05:25:00,
2013-11-01 01:30:00,65.3,62.6,29.75,WSW,257,8.0,14.0,91,0.00,,---,0.00,VWS V14.01,2013-11-01 05:30:00,
2013-11-01 01:35:00,65.6,62.9,29.75,WSW,250,8.0,14.0,91,0.00,,---,0.00,VWS V14.01,2013-11-01 05:35:00,
2013-11-01 01:40:00,65.7,62.7,29.75,WNW,296,8.0,10.0,90,0.00,,---,0.00,VWS V14.01,2013-11-01 05:40:00,
2013-11-01 01:45:00,65.9,62.6,29.75,SSW,209,6.0,12.0,89,0.00,,---,0.00,VWS V14.01,2013-11-01 05:45:00,
2013-11-01 01:50:00,66.0,62.7,29.74,West,277,5.0,13.0,89,0.00,,---,0.00,VWS V14.01,2013-11-01 05:50:00,
2013-11-01 01:55:00,66.2,62.5,29.73,SW,225,8.0,11.0,88,0.00,,---,0.00,VWS V14.01,2013-11-01 05:55:00,
2013-11-01 02:00:00,66.4,62.4,29.72,WNW,286,2.0,17.0,87,0.00,,---,0.00,VWS V14.01,2013-11-01 06:00:00,
2013-11-01 02:05:00,66.7,62.7,29.72,SW,218,7.0,14.0,87,0.00,,---,0.00,VWS V14.01,2013-11-01 06:05:00,
2013-11-01 02:10:00,66.8,62.5,29.72,WSW,249,6.0,14.0,86,0.00,,---,0.00,VWS V14.01,2013-11-01 06:10:00,
2013-11-01 02:15:00,66.9,62.6,29.72,SW,234,11.0,12.0,86,0.00,,---,0.00,VWS V14.01,2013-11-01 06:15:00,
2013-11-01 02:20:00,67.0,62.7,29.71,SW,229,5.0,17.0,86,0.00,,---,0.00,VWS V14.01,2013-11-01 06:20:00,
2013-11-01 02:25:00,67.0,62.7,29.71,SW,217,4.0,18.0,86,0.00,,---,0.00,VWS V14.01,2013-11-01 06:25:00,
2013-11-01 02:30:00,66.9,62.6,29.71,West,261,10.0,10.0,86,0.00,,---,0.00,VWS V14.01,2013-11-01 06:30:00,
2013-11-01 02:35:00,66.8,62.5,29.71,SSW,199,6.0,16.0,86,0.00,,---,0.00,VWS V14.01,2013-11-01 06:35:00,
2013-11-01 02:40:00,66.7,62.4,29.69,West,263,3.0,14.0,86,0.00,,---,0.00,VWS V14.01,2013-11-01 06:40:00,
2013-11-01 02:45:00,66.6,62.3,29.70,SSW,200,5.0,16.0,86,0.00,,---,0.00,VWS V14.01,2013-11-01 06:45:00,
2013-11-01 02:50:00,66.6,62.3,29.69,WSW,240,7.0,17.0,86,0.00,,---,0.00,VWS V14.01,2013-11-01 06:50:00,
2013-11-01 02:55:00,66.6,62.3,29.69,West,267,3.0,15.0,86,0.00,,---,0.00,VWS V14.01,2013-11-01 06:55:00,
2013-11-01 03:00:00,66.9,62.2,29.69,SSW,195,15.0,23.0,85,0.00,,---,0.00,VWS V14.01,2013-11-01 07:00:00,
2013-11-01 03:05:00,67.1,62.1,29.69,West,270,13.0,19.0,84,0.00,,---,0.00,VWS V14.01,2013-11-01 07:05:00,
2013-11-01 03:10:00,67.2,62.2,29.68,SSW,209,15.0,20.0,84,0.00,,---,0.00,VWS V14.01,2013-11-01 07:10:00,
2013-11-01 03:15:00,67.2,61.9,29.69,South,187,19.0,19.0,83,0.00,,---,0.00,VWS V14.01,2013-11-01 07:15:00,
2013-11-01 03:20:00,67.3,62.0,29.69,WNW,286,14.0,22.0,83,0.00,,---,0.00,VWS V14.01,2013-11-01 07:20:00,
2013-11-01 03:25:00,67.3,62.0,29.69,SSW,209,11.0,19.0,83,0.00,,---,0.00,VWS V14.01,2013-11-01 07:25:00,
2013-11-01 03:30:00,67.2,61.9,29.69,SSW,202,3.0,19.0,83,0.00,,---,0.00,VWS V14.01,2013-11-01 07:30:00,
2013-11-01 03:35:00,67.2,61.9,29.68,SSW,205,6.0,12.0,83,0.00,,---,0.00,VWS V14.01,2013-11-01 07:35:00,
2013-11-01 03:40:00,67.1,61.8,29.68,SSW,200,5.0,21.0,83,0.00,,---,0.00,VWS V14.01,2013-11-01 07:40:00,
2013-11-01 03:45:00,67.2,61.5,29.69,SSW,194,12.0,16.0,82,0.00,,---,0.00,VWS V14.01,2013-11-01 07:45:00,
2013-11-01 03:50:00,67.2,61.5,29.68,SW,214,4.0,15.0,82,0.00,,---,0.00,VWS V14.01,2013-11-01 07:50:00,
2013-11-01 03:55:00,67.2,61.5,29.68,SW,236,4.0,14.0,82,0.00,,---,0.00,VWS V14.01,2013-11-01 07:55:00,
2013-11-01 04:00:00,67.1,61.4,29.69,SSW,202,8.0,18.0,82,0.00,,---,0.00,VWS V14.01,2013-11-01 08:00:00,
2013-11-01 04:05:00,67.2,61.5,29.69,SSW,203,10.0,14.0,82,0.00,,---,0.00,VWS V14.01,2013-11-01 08:05:00,
2013-11-01 04:10:00,67.2,61.5,29.69,South,191,6.0,15.0,82,0.00,,---,0.00,VWS V14.01,2013-11-01 08:10:00,
2013-11-01 04:15:00,67.1,61.1,29.69,West,281,8.0,20.0,81,0.00,,---,0.00,VWS V14.01,2013-11-01 08:15:00,
2013-11-01 04:20:00,67.1,61.1,29.69,WSW,247,3.0,18.0,81,0.00,,---,0.00,VWS V14.01,2013-11-01 08:20:00,
2013-11-01 04:25:00,67.0,61.0,29.69,SW,215,8.0,13.0,81,0.00,,---,0.00,VWS V14.01,2013-11-01 08:25:00,
2013-11-01 04:30:00,66.9,61.2,29.69,SSE,167,6.0,18.0,82,0.00,,---,0.00,VWS V14.01,2013-11-01 08:30:00,
2013-11-01 04:35:00,66.9,61.2,29.68,West,267,4.0,17.0,82,0.00,,---,0.00,VWS V14.01,2013-11-01 08:35:00,
2013-11-01 04:40:00,66.8,60.8,29.68,WSW,243,4.0,13.0,81,0.00,,---,0.00,VWS V14.01,2013-11-01 08:40:00,
2013-11-01 04:45:00,66.8,60.8,29.68,SSW,202,10.0,13.0,81,0.00,,---,0.00,VWS V14.01,2013-11-01 08:45:00,
2013-11-01 04:50:00,66.8,60.8,29.68,South,188,5.0,22.0,81,0.00,,---,0.00,VWS V14.01,2013-11-01 08:50:00,
2013-11-01 04:55:00,66.8,60.8,29.68,SW,223,4.0,12.0,81,0.00,,---,0.00,VWS V14.01,2013-11-01 08:55:00,
2013-11-01 05:00:00,66.7,60.7,29.68,East,94,5.0,12.0,81,0.00,,---,0.00,VWS V14.01,2013-11-01 09:00:00,
2013-11-01 05:05:00,66.7,60.7,29.68,WSW,252,13.0,13.0,81,0.00,,---,0.00,VWS V14.01,2013-11-01 09:05:00,
2013-11-01 05:10:00,67.2,61.5,29.69,South,191,6.0,15.0,82,0.00,,---,0.00,VWS V14.01,2013-11-01 09:10:00,
2013-11-01 05:15:00,67.1,61.1,29.69,West,281,8.0,20.0,81,0.00,,---,0.00,VWS V14.01,2013-11-01 09:15:00,
2013-11-01 05:19:00,66.5,60.5,29.68,WSW,246,3.0,12.0,81,0.00,,---,0.00,VWS V14.01,2013-11-01 09:19:00,
2013-11-01 05:20:00,67.1,61.1,29.69,WSW,247,3.0,18.0,81,0.00,,---,0.00,VWS V14.01,2013-11-01 09:20:00,
2013-11-01 05:24:00,66.5,60.5,29.68,West,273,5.0,12.0,81,0.00,,---,0.00,VWS V14.01,2013-11-01 09:24:00,
2013-11-01 05:25:00,67.0,61.0,29.69,SW,215,8.0,13.0,81,0.00,,---,0.00,VWS V14.01,2013-11-01 09:25:00,
2013-11-01 05:29:00,66.4,60.4,29.68,SSW,209,9.0,13.0,81,0.00,,---,0.00,VWS V14.01,2013-11-01 09:29:00,
2013-11-01 05:30:00,66.9,61.2,29.69,SSE,167,6.0,18.0,82,0.00,,---,0.00,VWS V14.01,2013-11-01 09:30:00,
2013-11-01 05:34:00,66.3,60.3,29.66,SW,217,4.0,13.0,81,0.00,,---,0.00,VWS V14.01,2013-11-01 09:34:00,
2013-11-01 05:35:00,66.9,61.2,29.68,West,267,4.0,17.0,82,0.00,,---,0.00,VWS V14.01,2013-11-01 09:35:00,
2013-11-01 05:39:00,66.1,60.1,29.66,SSW,197,4.0,13.0,81,0.00,,---,0.00,VWS V14.01,2013-11-01 09:39:00,
2013-11-01 05:40:00,66.8,60.8,29.68,WSW,243,4.0,13.0,81,0.00,,---,0.00,VWS V14.01,2013-11-01 09:40:00,
2013-11-01 05:44:00,66.1,60.1,29.67,WSW,257,3.0,12.0,81,0.00,,---,0.00,VWS V14.01,2013-11-01 09:44:00,
2013-11-01 05:45:00,66.8,60.8,29.68,SSW,202,10.0,13.0,81,0.00,,---,0.00,VWS V14.01,2013-11-01 09:45:00,
2013-11-01 05:49:00,66.1,60.1,29.67,SW,226,5.0,11.0,81,0.00,,---,0.00,VWS V14.01,2013-11-01 09:49:00,
2013-11-01 05:50:00,66.8,60.8,29.68,South,188,5.0,22.0,81,0.00,,---,0.00,VWS V14.01,2013-11-01 09:50:00,
2013-11-01 05:54:00,66.1,59.8,29.68,SSW,212,4.0,8.0,80,0.00,,---,0.00,VWS V14.01,2013-11-01 09:54:00,
2013-11-01 05:55:00,66.8,60.8,29.68,SW,223,4.0,12.0,81,0.00,,---,0.00,VWS V14.01,2013-11-01 09:55:00,
2013-11-01 05:59:00,66.2,59.9,29.68,SW,218,5.0,10.0,80,0.00,,---,0.00,VWS V14.01,2013-11-01 09:59:00,
2013-11-01 06:00:00,66.7,60.7,29.68,East,94,5.0,12.0,81,0.00,,---,0.00,VWS V14.01,2013-11-01 10:00:00,
2013-11-01 06:04:00,66.2,59.9,29.68,SW,221,3.0,12.0,80,0.00,,---,0.00,VWS V14.01,2013-11-01 10:04:00,
2013-11-01 06:05:00,66.7,60.7,29.68,WSW,252,13.0,13.0,81,0.00,,---,0.00,VWS V14.01,2013-11-01 10:05:00,
2013-11-01 06:09:00,66.2,59.9,29.68,SSW,198,4.0,11.0,80,0.00,,---,0.00,VWS V14.01,2013-11-01 10:09:00,
2013-11-01 06:10:00,66.7,60.7,29.68,WSW,256,8.0,17.0,81,0.00,,---,0.00,VWS V14.01,2013-11-01 10:10:00,
2013-11-01 06:14:00,66.1,59.8,29.68,SSW,199,3.0,8.0,80,0.00,,---,0.00,VWS V14.01,2013-11-01 10:14:00,
2013-11-01 06:15:00,66.6,60.6,29.68,WSW,250,3.0,11.0,81,0.00,,---,0.00,VWS V14.01,2013-11-01 10:15:00,
2013-11-01 06:19:00,66.1,59.8,29.67,WSW,244,4.0,11.0,80,0.00,,---,0.00,VWS V14.01,2013-11-01 10:19:00,
2013-11-01 06:20:00,66.5,60.5,29.68,WSW,246,3.0,12.0,81,0.00,,---,0.00,VWS V14.01,2013-11-01 10:20:00,
2013-11-01 06:24:00,66.0,59.7,29.67,SW,222,3.0,7.0,80,0.00,,---,0.00,VWS V14.01,2013-11-01 10:24:00,
2013-11-01 06:25:00,66.5,60.5,29.68,West,273,5.0,12.0,81,0.00,,---,0.00,VWS V14.01,2013-11-01 10:25:00,
2013-11-01 06:29:00,65.9,59.6,29.67,WSW,257,4.0,7.0,80,0.00,,---,0.00,VWS V14.01,2013-11-01 10:29:00,
2013-11-01 06:30:00,66.4,60.4,29.68,SSW,209,9.0,13.0,81,0.00,,---,0.00,VWS V14.01,2013-11-01 10:30:00,
2013-11-01 06:34:00,65.8,59.5,29.67,WSW,242,2.0,4.0,80,0.00,,---,0.00,VWS V14.01,2013-11-01 10:34:00,
2013-11-01 06:35:00,66.3,60.3,29.66,SW,217,4.0,13.0,81,0.00,,---,0.00,VWS V14.01,2013-11-01 10:35:00,
2013-11-01 06:39:00,65.8,59.8,29.67,SW,220,2.0,4.0,81,0.00,,---,0.00,VWS V14.01,2013-11-01 10:39:00,
2013-11-01 06:40:00,66.1,60.1,29.66,SSW,197,4.0,13.0,81,0.00,,---,0.00,VWS V14.01,2013-11-01 10:40:00,
2013-11-01 06:44:00,65.7,59.7,29.67,SSW,196,5.0,10.0,81,0.00,,---,0.00,VWS V14.01,2013-11-01 10:44:00,
2013-11-01 06:45:00,66.1,60.1,29.67,WSW,257,3.0,12.0,81,0.00,,---,0.00,VWS V14.01,2013-11-01 10:45:00,
2013-11-01 06:50:00,66.1,60.1,29.67,SW,226,5.0,11.0,81,0.00,,---,0.00,VWS V14.01,2013-11-01 10:50:00,
2013-11-01 06:54:00,65.7,59.7,29.67,SSW,207,3.0,8.0,81,0.00,,---,0.00,VWS V14.01,2013-11-01 10:54:00,
2013-11-01 06:55:00,66.1,59.8,29.68,SSW,212,4.0,8.0,80,0.00,,---,0.00,VWS V14.01,2013-11-01 10:55:00,
2013-11-01 06:59:00,65.6,59.6,29.67,SW,219,6.0,6.0,81,0.00,,---,0.00,VWS V14.01,2013-11-01 10:59:00,
2013-11-01 07:00:00,66.2,59.9,29.68,SW,218,5.0,10.0,80,0.00,,---,0.00,VWS V14.01,2013-11-01 11:00:00,
2013-11-01 07:04:00,65.6,59.6,29.67,West,269,3.0,7.0,81,0.00,,---,0.00,VWS V14.01,2013-11-01 11:04:00,
2013-11-01 07:05:00,66.2,59.9,29.68,SW,221,3.0,12.0,80,0.00,,---,0.00,VWS V14.01,2013-11-01 11:05:00,
2013-11-01 07:09:00,65.6,59.6,29.67,West,279,2.0,8.0,81,0.00,,---,0.00,VWS V14.01,2013-11-01 11:09:00,
2013-11-01 07:10:00,66.2,59.9,29.68,SSW,198,4.0,11.0,80,0.00,,---,0.00,VWS V14.01,2013-11-01 11:10:00,
2013-11-01 07:14:00,65.6,60.0,29.67,SSW,213,6.0,7.0,82,0.00,,---,0.00,VWS V14.01,2013-11-01 11:14:00,
2013-11-01 07:15:00,66.1,59.8,29.68,SSW,199,3.0,8.0,80,0.00,,---,0.00,VWS V14.01,2013-11-01 11:15:00,
2013-11-01 07:19:00,65.5,59.9,29.67,WSW,240,1.0,8.0,82,0.00,,---,0.00,VWS V14.01,2013-11-01 11:19:00,
2013-11-01 07:20:00,66.1,59.8,29.67,WSW,244,4.0,11.0,80,0.00,,---,0.00,VWS V14.01,2013-11-01 11:20:00,
2013-11-01 07:24:00,65.5,59.9,29.67,SSW,196,3.0,8.0,82,0.00,,---,0.00,VWS V14.01,2013-11-01 11:24:00,
2013-11-01 07:25:00,66.0,59.7,29.67,SW,222,3.0,7.0,80,0.00,,---,0.00,VWS V14.01,2013-11-01 11:25:00,
2013-11-01 07:29:00,65.4,59.8,29.67,SSW,200,2.0,8.0,82,0.00,,---,0.00,VWS V14.01,2013-11-01 11:29:00,
2013-11-01 07:30:00,65.9,59.6,29.67,WSW,257,4.0,7.0,80,0.00,,---,0.00,VWS V14.01,2013-11-01 11:30:00,
2013-11-01 07:34:00,65.4,59.8,29.68,West,265,3.0,8.0,82,0.00,,---,0.00,VWS V14.01,2013-11-01 11:34:00,
2013-11-01 07:35:00,65.8,59.5,29.67,WSW,242,2.0,4.0,80,0.00,,---,0.00,VWS V14.01,2013-11-01 11:35:00,
2013-11-01 07:39:00,65.3,59.7,29.67,SW,234,3.0,6.0,82,0.00,,---,0.00,VWS V14.01,2013-11-01 11:39:00,
2013-11-01 07:40:00,65.8,59.8,29.67,SW,220,2.0,4.0,81,0.00,,---,0.00,VWS V14.01,2013-11-01 11:40:00,
2013-11-01 07:44:00,65.3,59.7,29.67,WSW,248,1.0,7.0,82,0.00,,---,0.00,VWS V14.01,2013-11-01 11:44:00,
2013-11-01 07:45:00,65.7,59.7,29.67,SSW,196,5.0,10.0,81,0.00,,---,0.00,VWS V14.01,2013-11-01 11:45:00,
2013-11-01 07:49:00,65.2,59.9,29.68,West,269,4.0,4.0,83,0.00,,---,0.00,VWS V14.01,2013-11-01 11:49:00,
2013-11-01 07:50:00,65.7,59.7,29.67,SW,232,1.0,5.0,81,0.00,,---,0.00,VWS V14.01,2013-11-01 11:50:00,
2013-11-01 07:54:00,65.2,59.9,29.68,SW,215,2.0,6.0,83,0.00,,---,0.00,VWS V14.01,2013-11-01 11:54:00,
2013-11-01 07:55:00,65.7,59.7,29.67,SSW,207,3.0,8.0,81,0.00,,---,0.00,VWS V14.01,2013-11-01 11:55:00,
2013-11-01 07:59:00,65.2,59.9,29.68,SW,234,2.0,5.0,83,0.00,,---,0.00,VWS V14.01,2013-11-01 11:59:00,
2013-11-01 08:00:00,65.6,59.6,29.67,SW,219,6.0,6.0,81,0.00,,---,0.00,VWS V14.01,2013-11-01 12:00:00,
2013-11-01 08:04:00,65.2,59.9,29.69,WNW,297,2.0,7.0,83,0.00,,---,0.00,VWS V14.01,2013-11-01 12:04:00,
2013-11-01 08:05:00,65.6,59.6,29.67,West,269,3.0,7.0,81,0.00,,---,0.00,VWS V14.01,2013-11-01 12:05:00,
2013-11-01 08:09:00,65.0,60.0,29.69,South,183,1.0,6.0,84,0.00,,---,0.00,VWS V14.01,2013-11-01 12:09:00,
2013-11-01 08:10:00,65.6,59.6,29.67,West,279,2.0,8.0,81,0.00,,---,0.00,VWS V14.01,2013-11-01 12:10:00,
2013-11-01 08:14:00,64.6,60.3,29.70,WNW,288,1.0,8.0,86,0.00,,---,0.00,VWS V14.01,2013-11-01 12:14:00,
2013-11-01 08:15:00,65.6,60.0,29.67,SSW,213,6.0,7.0,82,0.00,,---,0.00,VWS V14.01,2013-11-01 12:15:00,
2013-11-01 08:19:00,64.2,60.3,29.70,WSW,253,2.0,7.0,87,0.00,,---,0.00,VWS V14.01,2013-11-01 12:19:00,
2013-11-01 08:20:00,65.5,59.9,29.67,WSW,240,1.0,8.0,82,0.00,,---,0.00,VWS V14.01,2013-11-01 12:20:00,
2013-11-01 08:24:00,63.8,60.2,29.70,SW,233,0.0,4.0,88,0.00,,---,0.00,VWS V14.01,2013-11-01 12:24:00,
2013-11-01 08:25:00,65.5,59.9,29.67,SSW,196,3.0,8.0,82,0.00,,---,0.00,VWS V14.01,2013-11-01 12:25:00,
2013-11-01 08:29:00,63.6,60.0,29.71,SW,229,0.0,5.0,88,0.00,,---,0.00,VWS V14.01,2013-11-01 12:29:00,
2013-11-01 08:30:00,65.4,59.8,29.67,SSW,200,2.0,8.0,82,0.00,,---,0.00,VWS V14.01,2013-11-01 12:30:00,
2013-11-01 08:34:00,63.4,60.1,29.71,SW,219,3.0,4.0,89,0.01,,---,0.01,VWS V14.01,2013-11-01 12:34:00,
2013-11-01 08:35:00,65.4,59.8,29.68,West,265,3.0,8.0,82,0.00,,---,0.00,VWS V14.01,2013-11-01 12:35:00,
2013-11-01 08:39:00,63.1,60.1,29.71,WSW,256,1.0,5.0,90,0.02,,---,0.02,VWS V14.01,2013-11-01 12:39:00,
2013-11-01 08:40:00,65.3,59.7,29.67,SW,234,3.0,6.0,82,0.00,,---,0.00,VWS V14.01,2013-11-01 12:40:00,
2013-11-01 08:44:00,62.8,60.1,29.71,WSW,244,5.0,6.0,91,0.03,,---,0.03,VWS V14.01,2013-11-01 12:44:00,
2013-11-01 08:45:00,65.3,59.7,29.67,WSW,248,1.0,7.0,82,0.00,,---,0.00,VWS V14.01,2013-11-01 12:45:00,
2013-11-01 08:50:00,65.2,59.9,29.68,West,269,4.0,4.0,83,0.00,,---,0.00,VWS V14.01,2013-11-01 12:50:00,
2013-11-01 08:54:00,62.6,60.5,29.72,WSW,247,0.0,4.0,93,0.03,,---,0.03,VWS V14.01,2013-11-01 12:54:00,
2013-11-01 08:55:00,65.2,59.9,29.68,SW,215,2.0,6.0,83,0.00,,---,0.00,VWS V14.01,2013-11-01 12:55:00,
2013-11-01 08:59:00,62.6,60.5,29.72,SW,233,0.0,4.0,93,0.03,,---,0.03,VWS V14.01,2013-11-01 12:59:00,
2013-11-01 09:00:00,65.2,59.9,29.68,SW,234,2.0,5.0,83,0.00,,---,0.00,VWS V14.01,2013-11-01 13:00:00,
2013-11-01 09:04:00,62.7,61.0,29.72,SW,232,0.0,4.0,94,0.03,,---,0.03,VWS V14.01,2013-11-01 13:04:00,
2013-11-01 09:05:00,65.2,59.9,29.69,WNW,297,2.0,7.0,83,0.00,,---,0.00,VWS V14.01,2013-11-01 13:05:00,
2013-11-01 09:09:00,62.9,61.2,29.72,SW,231,1.0,3.0,94,0.03,,---,0.03,VWS V14.01,2013-11-01 13:09:00,
2013-11-01 09:10:00,65.0,60.0,29.69,South,183,1.0,6.0,84,0.00,,---,0.00,VWS V14.01,2013-11-01 13:10:00,
2013-11-01 09:14:00,63.0,61.2,29.72,SW,228,1.0,4.0,94,0.03,,---,0.03,VWS V14.01,2013-11-01 13:14:00,
2013-11-01 09:15:00,64.6,60.3,29.70,WNW,288,1.0,8.0,86,0.00,,---,0.00,VWS V14.01,2013-11-01 13:15:00,
2013-11-01 09:19:00,63.2,61.5,29.71,SW,227,0.0,3.0,94,0.03,,---,0.03,VWS V14.01,2013-11-01 13:19:00,
2013-11-01 09:20:00,64.2,60.3,29.70,WSW,253,2.0,7.0,87,0.00,,---,0.00,VWS V14.01,2013-11-01 13:20:00,
2013-11-01 09:24:00,63.4,61.7,29.70,South,169,2.0,5.0,94,0.03,,---,0.03,VWS V14.01,2013-11-01 13:24:00,
2013-11-01 09:25:00,63.8,60.2,29.70,SW,233,0.0,4.0,88,0.00,,---,0.00,VWS V14.01,2013-11-01 13:25:00,
2013-11-01 09:29:00,64.0,62.2,29.71,SSW,208,3.0,6.0,94,0.03,,---,0.03,VWS V14.01,2013-11-01 13:29:00,
2013-11-01 09:30:00,63.6,60.0,29.71,SW,229,0.0,5.0,88,0.00,,---,0.00,VWS V14.01,2013-11-01 13:30:00,
2013-11-01 09:34:00,64.3,62.2,29.72,SW,220,3.0,7.0,93,0.03,,---,0.03,VWS V14.01,2013-11-01 13:34:00,
2013-11-01 09:35:00,63.4,60.1,29.71,SW,219,3.0,4.0,89,0.01,,---,0.01,VWS V14.01,2013-11-01 13:35:00,
2013-11-01 09:39:00,64.1,62.0,29.73,SSW,206,0.0,6.0,93,0.02,,---,0.03,VWS V14.01,2013-11-01 13:39:00,
2013-11-01 09:40:00,63.1,60.1,29.71,WSW,256,1.0,5.0,90,0.02,,---,0.02,VWS V14.01,2013-11-01 13:40:00,
2013-11-01 09:44:00,63.9,61.8,29.72,SSW,207,2.0,5.0,93,0.01,,---,0.03,VWS V14.01,2013-11-01 13:44:00,
2013-11-01 09:45:00,62.8,60.1,29.71,WSW,244,5.0,6.0,91,0.03,,---,0.03,VWS V14.01,2013-11-01 13:45:00,
2013-11-01 09:49:00,63.7,61.6,29.73,SSW,192,1.0,4.0,93,0.00,,---,0.03,VWS V14.01,2013-11-01 13:49:00,
2013-11-01 09:50:00,62.7,60.3,29.72,WSW,248,2.0,7.0,92,0.03,,---,0.03,VWS V14.01,2013-11-01 13:50:00,
2013-11-01 09:54:00,63.7,62.0,29.73,SSW,194,4.0,5.0,94,0.00,,---,0.03,VWS V14.01,2013-11-01 13:54:00,
2013-11-01 09:55:00,62.6,60.5,29.72,WSW,247,0.0,4.0,93,0.03,,---,0.03,VWS V14.01,2013-11-01 13:55:00,
2013-11-01 09:59:00,63.7,62.0,29.73,SSW,196,2.0,4.0,94,0.00,,---,0.03,VWS V14.01,2013-11-01 13:59:00,
2013-11-01 10:00:00,62.6,60.5,29.72,SW,233,0.0,4.0,93,0.03,,---,0.03,VWS V14.01,2013-11-01 14:00:00,
2013-11-01 10:04:00,63.6,61.8,29.73,SSW,202,3.0,6.0,94,0.00,,---,0.03,VWS V14.01,2013-11-01 14:04:00,
2013-11-01 10:05:00,62.7,61.0,29.72,SW,232,0.0,4.0,94,0.03,,---,0.03,VWS V14.01,2013-11-01 14:05:00,
2013-11-01 10:09:00,63.7,62.0,29.73,WSW,255,3.0,4.0,94,0.00,,---,0.03,VWS V14.01,2013-11-01 14:09:00,
2013-11-01 10:10:00,62.9,61.2,29.72,SW,231,1.0,3.0,94,0.03,,---,0.03,VWS V14.01,2013-11-01 14:10:00,
2013-11-01 10:14:00,63.8,62.0,29.73,SW,221,0.0,5.0,94,0.00,,---,0.03,VWS V14.01,2013-11-01 14:14:00,
2013-11-01 10:15:00,63.0,61.2,29.72,SW,228,1.0,4.0,94,0.03,,---,0.03,VWS V14.01,2013-11-01 14:15:00,
2013-11-01 10:19:00,63.8,61.7,29.73,SW,219,0.0,4.0,93,0.00,,---,0.03,VWS V14.01,2013-11-01 14:19:00,
2013-11-01 10:20:00,63.2,61.5,29.71,SW,227,0.0,3.0,94,0.03,,---,0.03,VWS V14.01,2013-11-01 14:20:00,
2013-11-01 10:24:00,63.9,61.8,29.73,SW,220,2.0,3.0,93,0.00,,---,0.03,VWS V14.01,2013-11-01 14:24:00,
2013-11-01 10:25:00,63.4,61.7,29.70,South,169,2.0,5.0,94,0.03,,---,0.03,VWS V14.01,2013-11-01 14:25:00,
2013-11-01 10:29:00,64.0,61.9,29.73,SW,215,1.0,4.0,93,0.00,,---,0.03,VWS V14.01,2013-11-01 14:29:00,
2013-11-01 10:30:00,64.0,62.2,29.71,SSW,208,3.0,6.0,94,0.03,,---,0.03,VWS V14.01,2013-11-01 14:30:00,
2013-11-01 10:34:00,63.9,61.8,29.73,South,180,0.0,5.0,93,0.00,,---,0.03,VWS V14.01,2013-11-01 14:34:00,
2013-11-01 10:35:00,64.3,62.2,29.72,SW,220,3.0,7.0,93,0.03,,---,0.03,VWS V14.01,2013-11-01 14:35:00,
2013-11-01 10:39:00,64.0,61.9,29.73,South,181,0.0,3.0,93,0.00,,---,0.03,VWS V14.01,2013-11-01 14:39:00,
2013-11-01 10:40:00,64.1,62.0,29.73,SSW,206,0.0,6.0,93,0.02,,---,0.03,VWS V14.01,2013-11-01 14:40:00,
2013-11-01 10:44:00,63.9,61.8,29.73,West,268,4.0,5.0,93,0.00,,---,0.03,VWS V14.01,2013-11-01 14:44:00,
2013-11-01 10:45:00,63.9,61.8,29.72,SSW,207,2.0,5.0,93,0.01,,---,0.03,VWS V14.01,2013-11-01 14:45:00,
2013-11-01 10:49:00,63.7,61.6,29.73,SSW,209,2.0,5.0,93,0.00,,---,0.03,VWS V14.01,2013-11-01 14:49:00,
2013-11-01 10:50:00,63.7,61.6,29.73,SSW,192,1.0,4.0,93,0.00,,---,0.03,VWS V14.01,2013-11-01 14:50:00,
2013-11-01 10:54:00,63.6,61.5,29.72,WNW,288,1.0,4.0,93,0.00,,---,0.03,VWS V14.01,2013-11-01 14:54:00,
2013-11-01 10:55:00,63.7,61.9,29.73,SSW,194,4.0,5.0,94,0.00,,---,0.03,VWS V14.01,2013-11-01 14:55:00,
2013-11-01 10:59:00,63.6,61.5,29.72,SW,228,2.0,5.0,93,0.00,,---,0.03,VWS V14.01,2013-11-01 14:59:00,
2013-11-01 11:00:00,63.7,61.9,29.73,SSW,196,2.0,4.0,94,0.00,,---,0.03,VWS V14.01,2013-11-01 15:00:00,
2013-11-01 11:04:00,63.7,61.6,29.72,SSW,209,2.0,4.0,93,0.00,,---,0.03,VWS V14.01,2013-11-01 15:04:00,
2013-11-01 11:05:00,63.6,61.8,29.73,SSW,202,3.0,6.0,94,0.00,,---,0.03,VWS V14.01,2013-11-01 15:05:00,
2013-11-01 11:09:00,63.5,61.4,29.72,South,182,3.0,4.0,93,0.00,,---,0.03,VWS V14.01,2013-11-01 15:09:00,
2013-11-01 11:10:00,63.7,61.9,29.73,WSW,255,3.0,4.0,94,0.00,,---,0.03,VWS V14.01,2013-11-01 15:10:00,
2013-11-01 11:14:00,63.5,61.4,29.72,SSE,167,1.0,4.0,93,0.00,,---,0.03,VWS V14.01,2013-11-01 15:14:00,
2013-11-01 11:15:00,63.8,62.0,29.73,SW,221,0.0,5.0,94,0.00,,---,0.03,VWS V14.01,2013-11-01 15:15:00,
2013-11-01 11:19:00,63.4,61.3,29.73,SSW,213,3.0,4.0,93,0.00,,---,0.03,VWS V14.01,2013-11-01 15:19:00,
2013-11-01 11:20:00,63.8,61.7,29.73,SW,219,0.0,4.0,93,0.00,,---,0.03,VWS V14.01,2013-11-01 15:20:00,
2013-11-01 11:24:00,63.3,61.2,29.72,SW,216,0.0,5.0,93,0.00,,---,0.03,VWS V14.01,2013-11-01 15:24:00,
2013-11-01 11:25:00,63.9,61.8,29.73,SW,220,2.0,3.0,93,0.00,,---,0.03,VWS V14.01,2013-11-01 15:25:00,
2013-11-01 11:29:00,63.3,60.9,29.72,SW,216,0.0,3.0,92,0.00,,---,0.03,VWS V14.01,2013-11-01 15:29:00,
2013-11-01 11:30:00,64.0,61.9,29.73,SW,215,1.0,4.0,93,0.00,,---,0.03,VWS V14.01,2013-11-01 15:30:00,
2013-11-01 11:34:00,63.3,60.9,29.72,SW,217,4.0,5.0,92,0.00,,---,0.03,VWS V14.01,2013-11-01 15:34:00,
2013-11-01 11:35:00,63.9,61.8,29.73,South,180,0.0,5.0,93,0.00,,---,0.03,VWS V14.01,2013-11-01 15:35:00,
2013-11-01 11:39:00,63.4,61.0,29.72,SW,219,0.0,4.0,92,0.00,,---,0.03,VWS V14.01,2013-11-01 15:39:00,
2013-11-01 11:40:00,64.0,61.9,29.73,South,181,0.0,3.0,93,0.00,,---,0.03,VWS V14.01,2013-11-01 15:40:00,
2013-11-01 11:44:00,63.6,60.9,29.72,SW,216,2.0,5.0,91,0.00,,---,0.03,VWS V14.01,2013-11-01 15:44:00,
2013-11-01 11:45:00,63.9,61.8,29.73,West,268,4.0,5.0,93,0.00,,---,0.03,VWS V14.01,2013-11-01 15:45:00,
2013-11-01 11:49:00,64.1,61.4,29.71,SW,216,2.0,4.0,91,0.00,,---,0.03,VWS V14.01,2013-11-01 15:49:00,
2013-11-01 11:50:00,63.7,61.6,29.73,SSW,209,2.0,5.0,93,0.00,,---,0.03,VWS V14.01,2013-11-01 15:50:00,
2013-11-01 11:54:00,65.0,61.4,29.71,WSW,241,2.0,8.0,88,0.00,,---,0.03,VWS V14.01,2013-11-01 15:54:00,
2013-11-01 11:55:00,63.6,61.5,29.72,WNW,288,1.0,4.0,93,0.00,,---,0.03,VWS V14.01,2013-11-01 15:55:00,
2013-11-01 12:00:00,63.6,61.5,29.72,SW,228,2.0,5.0,93,0.00,,---,0.03,VWS V14.01,2013-11-01 16:00:00,
2013-11-01 12:04:00,65.7,60.4,29.70,South,191,3.0,7.0,83,0.00,,---,0.03,VWS V14.01,2013-11-01 16:04:00,
2013-11-01 12:05:00,63.7,61.6,29.72,SSW,209,2.0,4.0,93,0.00,,---,0.03,VWS V14.01,2013-11-01 16:05:00,
2013-11-01 12:09:00,66.5,60.5,29.70,West,275,2.0,6.0,81,0.00,,---,0.03,VWS V14.01,2013-11-01 16:09:00,
2013-11-01 12:10:00,63.5,61.4,29.72,South,182,3.0,4.0,93,0.00,,---,0.03,VWS V14.01,2013-11-01 16:10:00,
2013-11-01 12:14:00,66.9,61.6,29.70,SSW,207,4.0,7.0,83,0.00,,---,0.03,VWS V14.01,2013-11-01 16:14:00,
2013-11-01 12:15:00,63.5,61.4,29.72,SSE,167,1.0,4.0,93,0.00,,---,0.03,VWS V14.01,2013-11-01 16:15:00,
2013-11-01 12:19:00,67.5,60.8,29.69,WSW,252,5.0,8.0,79,0.00,,---,0.03,VWS V14.01,2013-11-01 16:19:00,
2013-11-01 12:20:00,63.4,61.3,29.73,SSW,213,3.0,4.0,93,0.00,,---,0.03,VWS V14.01,2013-11-01 16:20:00,
2013-11-01 12:24:00,67.5,60.4,29.69,SSW,194,5.0,9.0,78,0.00,,---,0.03,VWS V14.01,2013-11-01 16:24:00,
2013-11-01 12:25:00,63.3,61.2,29.72,SW,216,0.0,5.0,93,0.00,,---,0.03,VWS V14.01,2013-11-01 16:25:00,
2013-11-01 12:29:00,67.9,58.9,29.70,SSW,205,4.0,11.0,73,0.00,,---,0.03,VWS V14.01,2013-11-01 16:29:00,
2013-11-01 12:30:00,63.3,60.9,29.72,SW,216,0.0,3.0,92,0.00,,---,0.03,VWS V14.01,2013-11-01 16:30:00,
2013-11-01 12:34:00,68.6,59.6,29.69,SSW,211,3.0,9.0,73,0.00,,---,0.03,VWS V14.01,2013-11-01 16:34:00,
2013-11-01 12:35:00,63.3,60.9,29.72,SW,217,4.0,5.0,92,0.00,,---,0.03,VWS V14.01,2013-11-01 16:35:00,
2013-11-01 12:39:00,68.8,59.4,29.69,West,273,7.0,8.0,72,0.00,,---,0.03,VWS V14.01,2013-11-01 16:39:00,
2013-11-01 12:40:00,63.4,61.0,29.72,SW,219,0.0,4.0,92,0.00,,---,0.03,VWS V14.01,2013-11-01 16:40:00,
2013-11-01 12:44:00,69.0,59.2,29.68,WSW,240,2.0,7.0,71,0.00,,---,0.03,VWS V14.01,2013-11-01 16:44:00,
2013-11-01 12:45:00,63.6,60.9,29.72,SW,216,2.0,5.0,91,0.00,,---,0.03,VWS V14.01,2013-11-01 16:45:00,
2013-11-01 12:50:00,64.1,61.4,29.71,SW,216,2.0,4.0,91,0.00,,---,0.03,VWS V14.01,2013-11-01 16:50:00,
2013-11-01 12:54:00,69.9,59.7,29.68,SSW,200,1.0,8.0,70,0.00,,---,0.03,VWS V14.01,2013-11-01 16:54:00,
2013-11-01 12:55:00,65.0,61.4,29.71,WSW,241,2.0,8.0,88,0.00,,---,0.03,VWS V14.01,2013-11-01 16:55:00,
2013-11-01 12:59:00,70.1,60.3,29.68,South,184,7.0,8.0,71,0.00,,---,0.03,VWS V14.01,2013-11-01 16:59:00,
2013-11-01 13:00:00,65.4,60.8,29.70,WNW,282,1.0,8.0,85,0.00,,---,0.03,VWS V14.01,2013-11-01 17:00:00,
2013-11-01 13:04:00,70.2,60.0,29.68,SW,215,7.0,7.0,70,0.00,,---,0.03,VWS V14.01,2013-11-01 17:04:00,
2013-11-01 13:05:00,65.7,60.4,29.70,South,191,3.0,7.0,83,0.00,,---,0.03,VWS V14.01,2013-11-01 17:05:00,
2013-11-01 13:09:00,70.6,60.3,29.67,SSW,202,5.0,8.0,70,0.00,,---,0.03,VWS V14.01,2013-11-01 17:09:00,
2013-11-01 13:10:00,66.5,60.5,29.70,West,275,2.0,6.0,81,0.00,,---,0.03,VWS V14.01,2013-11-01 17:10:00,
2013-11-01 13:14:00,71.0,59.5,29.67,SSW,204,4.0,8.0,67,0.00,,---,0.03,VWS V14.01,2013-11-01 17:14:00,
2013-11-01 13:15:00,66.9,61.6,29.70,SSW,207,4.0,7.0,83,0.00,,---,0.03,VWS V14.01,2013-11-01 17:15:00,
2013-11-01 13:19:00,70.6,59.5,29.66,WNW,285,1.0,7.0,68,0.00,,---,0.03,VWS V14.01,2013-11-01 17:19:00,
2013-11-01 13:20:00,67.5,60.8,29.69,WSW,252,5.0,8.0,79,0.00,,---,0.03,VWS V14.01,2013-11-01 17:20:00,
2013-11-01 13:24:00,70.7,59.6,29.66,SSW,197,7.0,10.0,68,0.00,,---,0.03,VWS V14.01,2013-11-01 17:24:00,
2013-11-01 13:25:00,67.5,60.4,29.69,SSW,194,5.0,9.0,78,0.00,,---,0.03,VWS V14.01,2013-11-01 17:25:00,
2013-11-01 13:29:00,71.0,59.1,29.66,West,265,5.0,8.0,66,0.00,,---,0.03,VWS V14.01,2013-11-01 17:29:00,
2013-11-01 13:30:00,67.9,58.9,29.70,SSW,205,4.0,11.0,73,0.00,,---,0.03,VWS V14.01,2013-11-01 17:30:00,
2013-11-01 13:34:00,71.1,59.2,29.66,South,190,5.0,9.0,66,0.00,,---,0.03,VWS V14.01,2013-11-01 17:34:00,
2013-11-01 13:35:00,68.6,59.6,29.69,SSW,211,3.0,9.0,73,0.00,,---,0.03,VWS V14.01,2013-11-01 17:35:00,
2013-11-01 13:39:00,71.1,59.2,29.65,South,170,2.0,6.0,66,0.00,,---,0.03,VWS V14.01,2013-11-01 17:39:00,
2013-11-01 13:40:00,68.8,59.4,29.69,West,273,7.0,8.0,72,0.00,,---,0.03,VWS V14.01,2013-11-01 17:40:00,
2013-11-01 13:44:00,71.4,59.0,29.65,SW,221,5.0,9.0,65,0.00,,---,0.03,VWS V14.01,2013-11-01 17:44:00,
2013-11-01 13:45:00,69.0,59.2,29.68,WSW,240,2.0,7.0,71,0.00,,---,0.03,VWS V14.01,2013-11-01 17:45:00,
2013-11-01 13:49:00,72.2,59.4,29.65,SSE,159,9.0,9.0,64,0.00,,---,0.03,VWS V14.01,2013-11-01 17:49:00,
2013-11-01 13:50:00,69.7,60.7,29.68,SSE,159,4.0,7.0,73,0.00,,---,0.03,VWS V14.01,2013-11-01 17:50:00,
2013-11-01 13:54:00,72.6,59.3,29.65,WSW,240,4.0,9.0,63,0.00,,---,0.03,VWS V14.01,2013-11-01 17:54:00,
2013-11-01 13:55:00,69.9,59.7,29.68,SSW,200,1.0,8.0,70,0.00,,---,0.03,VWS V14.01,2013-11-01 17:55:00,
2013-11-01 13:59:00,72.2,59.4,29.65,SE,142,2.0,8.0,64,0.00,,---,0.03,VWS V14.01,2013-11-01 17:59:00,
2013-11-01 14:00:00,70.1,60.3,29.68,South,184,7.0,8.0,71,0.00,,---,0.03,VWS V14.01,2013-11-01 18:00:00,
2013-11-01 14:04:00,71.3,59.4,29.65,South,184,4.0,9.0,66,0.00,,---,0.03,VWS V14.01,2013-11-01 18:04:00,
2013-11-01 14:05:00,70.2,60.0,29.68,SW,215,7.0,7.0,70,0.00,,---,0.03,VWS V14.01,2013-11-01 18:05:00,
2013-11-01 14:09:00,70.9,59.0,29.65,SSW,197,3.0,7.0,66,0.00,,---,0.03,VWS V14.01,2013-11-01 18:09:00,
2013-11-01 14:10:00,70.6,60.3,29.67,SSW,202,5.0,8.0,70,0.00,,---,0.03,VWS V14.01,2013-11-01 18:10:00,
2013-11-01 14:14:00,71.1,60.4,29.65,ESE,122,6.0,6.0,69,0.00,,---,0.03,VWS V14.01,2013-11-01 18:14:00,
2013-11-01 14:15:00,71.0,59.5,29.67,SSW,204,4.0,8.0,67,0.00,,---,0.03,VWS V14.01,2013-11-01 18:15:00,
2013-11-01 14:19:00,71.8,59.8,29.64,SSE,147,6.0,9.0,66,0.00,,---,0.03,VWS V14.01,2013-11-01 18:19:00,
2013-11-01 14:20:00,70.6,59.5,29.66,WNW,285,1.0,7.0,68,0.00,,---,0.03,VWS V14.01,2013-11-01 18:20:00,
2013-11-01 14:24:00,72.1,59.7,29.64,SSW,200,3.0,10.0,65,0.00,,---,0.03,VWS V14.01,2013-11-01 18:24:00,
2013-11-01 14:25:00,70.7,59.6,29.66,SSW,197,7.0,10.0,68,0.00,,---,0.03,VWS V14.01,2013-11-01 18:25:00,
2013-11-01 14:29:00,72.7,61.1,29.64,SSW,210,4.0,9.0,67,0.00,,---,0.03,VWS V14.01,2013-11-01 18:29:00,
2013-11-01 14:30:00,71.0,59.1,29.66,West,265,5.0,8.0,66,0.00,,---,0.03,VWS V14.01,2013-11-01 18:30:00,
2013-11-01 14:35:00,71.1,59.2,29.66,South,190,5.0,9.0,66,0.00,,---,0.03,VWS V14.01,2013-11-01 18:35:00,
2013-11-01 14:39:00,73.5,62.3,29.63,South,180,4.0,11.0,68,0.00,,---,0.03,VWS V14.01,2013-11-01 18:39:00,
2013-11-01 14:40:00,71.1,59.2,29.65,South,170,2.0,6.0,66,0.00,,---,0.03,VWS V14.01,2013-11-01 18:40:00,
2013-11-01 14:44:00,72.4,61.7,29.62,SE,139,2.0,11.0,69,0.00,,---,0.03,VWS V14.01,2013-11-01 18:44:00,
2013-11-01 14:45:00,71.4,59.0,29.65,SW,221,5.0,9.0,65,0.00,,---,0.03,VWS V14.01,2013-11-01 18:45:00,
2013-11-01 14:50:00,72.2,59.4,29.65,SSE,159,9.0,9.0,64,0.00,,---,0.03,VWS V14.01,2013-11-01 18:50:00,
2013-11-01 14:54:00,70.6,60.3,29.62,South,172,4.0,7.0,70,0.00,,---,0.03,VWS V14.01,2013-11-01 18:54:00,
2013-11-01 14:55:00,72.6,59.3,29.65,WSW,240,4.0,9.0,63,0.00,,---,0.03,VWS V14.01,2013-11-01 18:55:00,
2013-11-01 15:00:00,72.2,59.4,29.65,SE,142,2.0,8.0,64,0.00,,---,0.03,VWS V14.01,2013-11-01 19:00:00,
2013-11-01 15:04:00,71.1,60.0,29.62,SSW,209,4.0,8.0,68,0.00,,---,0.03,VWS V14.01,2013-11-01 19:04:00,
2013-11-01 15:05:00,71.3,59.4,29.65,South,184,4.0,9.0,66,0.00,,---,0.03,VWS V14.01,2013-11-01 19:05:00,
2013-11-01 15:09:00,71.2,60.1,29.62,SSW,207,2.0,8.0,68,0.00,,---,0.03,VWS V14.01,2013-11-01 19:09:00,
2013-11-01 15:10:00,70.9,59.0,29.65,SSW,197,3.0,7.0,66,0.00,,---,0.03,VWS V14.01,2013-11-01 19:10:00,
2013-11-01 15:14:00,72.0,60.0,29.62,SSE,168,2.0,6.0,66,0.00,,---,0.03,VWS V14.01,2013-11-01 19:14:00,
2013-11-01 15:15:00,71.1,60.4,29.65,ESE,122,6.0,6.0,69,0.00,,---,0.03,VWS V14.01,2013-11-01 19:15:00,
2013-11-01 15:19:00,73.0,60.1,29.61,SSW,200,4.0,6.0,64,0.00,,---,0.03,VWS V14.01,2013-11-01 19:19:00,
2013-11-01 15:20:00,71.8,59.8,29.64,SSE,147,6.0,9.0,66,0.00,,---,0.03,VWS V14.01,2013-11-01 19:20:00,
2013-11-01 15:24:00,72.7,59.4,29.61,SSW,211,2.0,8.0,63,0.00,,---,0.03,VWS V14.01,2013-11-01 19:24:00,
2013-11-01 15:25:00,72.1,59.7,29.64,SSW,200,3.0,10.0,65,0.00,,---,0.03,VWS V14.01,2013-11-01 19:25:00,
2013-11-01 15:29:00,71.9,59.5,29.62,South,175,6.0,8.0,65,0.00,,---,0.03,VWS V14.01,2013-11-01 19:29:00,
2013-11-01 15:30:00,72.7,61.1,29.64,SSW,210,4.0,9.0,67,0.00,,---,0.03,VWS V14.01,2013-11-01 19:30:00,
2013-11-01 15:34:00,71.4,59.9,29.62,SSW,209,4.0,9.0,67,0.00,,---,0.03,VWS V14.01,2013-11-01 19:34:00,
2013-11-01 15:35:00,72.9,61.7,29.63,SW,225,5.0,9.0,68,0.00,,---,0.03,VWS V14.01,2013-11-01 19:35:00,
2013-11-01 15:39:00,71.4,59.9,29.62,South,170,1.0,6.0,67,0.00,,---,0.03,VWS V14.01,2013-11-01 19:39:00,
2013-11-01 15:40:00,73.5,62.3,29.63,South,180,4.0,11.0,68,0.00,,---,0.03,VWS V14.01,2013-11-01 19:40:00,
2013-11-01 15:44:00,71.5,61.2,29.62,SW,218,6.0,8.0,70,0.00,,---,0.03,VWS V14.01,2013-11-01 19:44:00,
2013-11-01 15:45:00,72.4,61.7,29.62,SE,139,2.0,11.0,69,0.00,,---,0.03,VWS V14.01,2013-11-01 19:45:00,
2013-11-01 15:49:00,71.9,61.6,29.62,SSE,166,8.0,9.0,70,0.00,,---,0.03,VWS V14.01,2013-11-01 19:49:00,
2013-11-01 15:50:00,71.2,60.5,29.62,South,177,5.0,7.0,69,0.00,,---,0.03,VWS V14.01,2013-11-01 19:50:00,
2013-11-01 15:54:00,72.1,61.0,29.62,South,183,3.0,9.0,68,0.00,,---,0.03,VWS V14.01,2013-11-01 19:54:00,
2013-11-01 15:55:00,70.6,60.3,29.62,South,172,4.0,7.0,70,0.00,,---,0.03,VWS V14.01,2013-11-01 19:55:00,
2013-11-01 15:59:00,71.4,60.3,29.62,SSW,209,4.0,10.0,68,0.00,,---,0.03,VWS V14.01,2013-11-01 19:59:00,
2013-11-01 16:00:00,70.8,60.5,29.62,SSW,192,4.0,9.0,70,0.00,,---,0.03,VWS V14.01,2013-11-01 20:00:00,
2013-11-01 16:04:00,71.3,60.6,29.61,South,186,2.0,6.0,69,0.00,,---,0.03,VWS V14.01,2013-11-01 20:04:00,
2013-11-01 16:05:00,71.1,60.0,29.62,SSW,209,4.0,8.0,68,0.00,,---,0.03,VWS V14.01,2013-11-01 20:05:00,
2013-11-01 16:09:00,72.1,62.2,29.61,South,175,1.0,6.0,71,0.00,,---,0.03,VWS V14.01,2013-11-01 20:09:00,
2013-11-01 16:10:00,71.2,60.1,29.62,SSW,207,2.0,8.0,68,0.00,,---,0.03,VWS V14.01,2013-11-01 20:10:00,
2013-11-01 16:14:00,72.5,61.8,29.61,SSW,196,5.0,12.0,69,0.00,,---,0.03,VWS V14.01,2013-11-01 20:14:00,
2013-11-01 16:15:00,72.0,60.0,29.62,SSE,168,2.0,6.0,66,0.00,,---,0.03,VWS V14.01,2013-11-01 20:15:00,
2013-11-01 16:19:00,72.5,62.2,29.60,SE,142,6.0,10.0,70,0.00,,---,0.03,VWS V14.01,2013-11-01 20:19:00,
2013-11-01 16:20:00,73.0,60.1,29.61,SSW,200,4.0,6.0,64,0.00,,---,0.03,VWS V14.01,2013-11-01 20:20:00,
2013-11-01 16:24:00,71.7,61.8,29.60,SE,145,4.0,9.0,71,0.00,,---,0.03,VWS V14.01,2013-11-01 20:24:00,
2013-11-01 16:25:00,72.7,59.4,29.61,SSW,211,2.0,8.0,63,0.00,,---,0.03,VWS V14.01,2013-11-01 20:25:00,
2013-11-01 16:29:00,71.2,62.1,29.60,SE,138,4.0,9.0,73,0.00,,---,0.03,VWS V14.01,2013-11-01 20:29:00,
2013-11-01 16:30:00,71.9,59.5,29.62,South,175,6.0,8.0,65,0.00,,---,0.03,VWS V14.01,2013-11-01 20:30:00,
2013-11-01 16:34:00,71.0,61.9,29.60,East,86,4.0,7.0,73,0.00,,---,0.03,VWS V14.01,2013-11-01 20:34:00,
2013-11-01 16:35:00,71.4,59.9,29.62,SSW,209,4.0,9.0,67,0.00,,---,0.03,VWS V14.01,2013-11-01 20:35:00,
2013-11-01 16:39:00,70.6,61.9,29.60,South,183,5.0,7.0,74,0.00,,---,0.03,VWS V14.01,2013-11-01 20:39:00,
2013-11-01 16:40:00,71.4,59.9,29.62,South,170,1.0,6.0,67,0.00,,---,0.03,VWS V14.01,2013-11-01 20:40:00,
2013-11-01 16:44:00,70.3,60.9,29.59,SSE,166,4.0,9.0,72,0.00,,---,0.03,VWS V14.01,2013-11-01 20:44:00,
2013-11-01 16:45:00,71.5,61.2,29.62,SW,218,6.0,8.0,70,0.00,,---,0.03,VWS V14.01,2013-11-01 20:45:00,
2013-11-01 16:49:00,70.0,60.6,29.59,WSW,254,3.0,7.0,72,0.00,,---,0.03,VWS V14.01,2013-11-01 20:49:00,
2013-11-01 16:50:00,71.9,61.6,29.62,SSE,166,8.0,9.0,70,0.00,,---,0.03,VWS V14.01,2013-11-01 20:50:00,
2013-11-01 16:54:00,69.7,60.7,29.60,WSW,245,2.0,6.0,73,0.00,,---,0.03,VWS V14.01,2013-11-01 20:54:00,
2013-11-01 16:55:00,72.1,61.0,29.62,South,183,3.0,9.0,68,0.00,,---,0.03,VWS V14.01,2013-11-01 20:55:00,
2013-11-01 16:59:00,69.3,60.3,29.59,SW,220,0.0,5.0,73,0.00,,---,0.03,VWS V14.01,2013-11-01 20:59:00,
2013-11-01 17:00:00,71.4,60.3,29.62,SSW,209,4.0,10.0,68,0.00,,---,0.03,VWS V14.01,2013-11-01 21:00:00,
2013-11-01 17:04:00,69.4,60.8,29.59,WSW,242,1.0,6.0,74,0.00,,---,0.03,VWS V14.01,2013-11-01 21:04:00,
2013-11-01 17:05:00,71.3,60.6,29.61,South,186,2.0,6.0,69,0.00,,---,0.03,VWS V14.01,2013-11-01 21:05:00,
2013-11-01 17:09:00,70.1,60.7,29.59,SW,219,2.0,6.0,72,0.00,,---,0.03,VWS V14.01,2013-11-01 21:09:00,
2013-11-01 17:10:00,72.1,62.2,29.61,South,175,1.0,6.0,71,0.00,,---,0.03,VWS V14.01,2013-11-01 21:10:00,
2013-11-01 17:14:00,70.2,60.4,29.59,SSW,213,2.0,6.0,71,0.00,,---,0.03,VWS V14.01,2013-11-01 21:14:00,
2013-11-01 17:15:00,72.5,61.8,29.61,SSW,196,5.0,12.0,69,0.00,,---,0.03,VWS V14.01,2013-11-01 21:15:00,
2013-11-01 17:19:00,70.1,60.3,29.59,WSW,254,3.0,5.0,71,0.00,,---,0.03,VWS V14.01,2013-11-01 21:19:00,
2013-11-01 17:20:00,72.5,62.2,29.60,SE,142,6.0,10.0,70,0.00,,---,0.03,VWS V14.01,2013-11-01 21:20:00,
2013-11-01 17:24:00,69.9,60.5,29.59,WSW,250,3.0,4.0,72,0.00,,---,0.03,VWS V14.01,2013-11-01 21:24:00,
2013-11-01 17:25:00,71.7,61.8,29.60,SE,145,4.0,9.0,71,0.00,,---,0.03,VWS V14.01,2013-11-01 21:25:00,
2013-11-01 17:29:00,69.5,60.5,29.59,WSW,250,0.0,4.0,73,0.00,,---,0.03,VWS V14.01,2013-11-01 21:29:00,
2013-11-01 17:30:00,71.2,62.1,29.60,SE,138,4.0,9.0,73,0.00,,---,0.03,VWS V14.01,2013-11-01 21:30:00,
2013-11-01 17:34:00,69.2,60.6,29.60,WSW,242,0.0,4.0,74,0.00,,---,0.03,VWS V14.01,2013-11-01 21:34:00,
2013-11-01 17:35:00,71.0,61.9,29.60,East,86,4.0,7.0,73,0.00,,---,0.03,VWS V14.01,2013-11-01 21:35:00,
2013-11-01 17:39:00,68.9,60.3,29.60,SSW,200,3.0,6.0,74,0.00,,---,0.03,VWS V14.01,2013-11-01 21:39:00,
2013-11-01 17:40:00,70.6,61.9,29.60,South,183,5.0,7.0,74,0.00,,---,0.03,VWS V14.01,2013-11-01 21:40:00,
2013-11-01 17:44:00,68.6,60.0,29.61,SW,216,1.0,4.0,74,0.00,,---,0.03,VWS V14.01,2013-11-01 21:44:00,
2013-11-01 17:45:00,70.3,60.9,29.59,SSE,166,4.0,9.0,72,0.00,,---,0.03,VWS V14.01,2013-11-01 21:45:00,
2013-11-01 17:49:00,68.4,60.2,29.61,SSW,204,2.0,5.0,75,0.00,,---,0.03,VWS V14.01,2013-11-01 21:49:00,
2013-11-01 17:50:00,70.0,60.6,29.59,WSW,254,3.0,7.0,72,0.00,,---,0.03,VWS V14.01,2013-11-01 21:50:00,
2013-11-01 17:54:00,68.2,60.0,29.61,SW,223,0.0,3.0,75,0.00,,---,0.03,VWS V14.01,2013-11-01 21:54:00,
2013-11-01 17:55:00,69.7,60.7,29.60,WSW,245,2.0,6.0,73,0.00,,---,0.03,VWS V14.01,2013-11-01 21:55:00,
2013-11-01 17:59:00,68.0,59.8,29.61,SSW,193,3.0,5.0,75,0.00,,---,0.03,VWS V14.01,2013-11-01 21:59:00,
2013-11-01 18:00:00,69.3,60.3,29.59,SW,220,0.0,5.0,73,0.00,,---,0.03,VWS V14.01,2013-11-01 22:00:00,
2013-11-01 18:05:00,69.4,60.8,29.59,WSW,242,1.0,6.0,74,0.00,,---,0.03,VWS V14.01,2013-11-01 22:05:00,
2013-11-01 18:09:00,67.6,59.8,29.62,SSW,208,0.0,4.0,76,0.00,,---,0.03,VWS V14.01,2013-11-01 22:09:00,
2013-11-01 18:10:00,70.1,60.7,29.59,SW,219,2.0,6.0,72,0.00,,---,0.03,VWS V14.01,2013-11-01 22:10:00,
2013-11-01 18:14:00,67.2,59.8,29.62,WSW,240,1.0,3.0,77,0.00,,---,0.03,VWS V14.01,2013-11-01 22:14:00,
2013-11-01 18:15:00,70.2,60.4,29.59,SSW,213,2.0,6.0,71,0.00,,---,0.03,VWS V14.01,2013-11-01 22:15:00,
2013-11-01 18:19:00,66.6,59.5,29.62,WSW,240,0.0,2.0,78,0.00,,---,0.03,VWS V14.01,2013-11-01 22:19:00,
2013-11-01 18:20:00,70.1,60.3,29.59,WSW,254,3.0,5.0,71,0.00,,---,0.03,VWS V14.01,2013-11-01 22:20:00,
2013-11-01 18:24:00,65.6,59.3,29.62,WSW,240,0.0,2.0,80,0.00,,---,0.03,VWS V14.01,2013-11-01 22:24:00,
2013-11-01 18:25:00,69.9,60.5,29.59,WSW,250,3.0,4.0,72,0.00,,---,0.03,VWS V14.01,2013-11-01 22:25:00,
2013-11-01 18:29:00,64.7,59.1,29.62,WSW,240,0.0,0.0,82,0.00,,---,0.03,VWS V14.01,2013-11-01 22:29:00,
2013-11-01 18:30:00,69.5,60.5,29.59,WSW,250,0.0,4.0,73,0.00,,---,0.03,VWS V14.01,2013-11-01 22:30:00,
2013-11-01 18:34:00,63.8,58.9,29.63,WSW,250,1.0,2.0,84,0.00,,---,0.03,VWS V14.01,2013-11-01 22:34:00,
2013-11-01 18:35:00,69.2,60.6,29.60,WSW,242,0.0,4.0,74,0.00,,---,0.03,VWS V14.01,2013-11-01 22:35:00,
2013-11-01 18:39:00,63.2,58.6,29.63,WSW,250,0.0,1.0,85,0.00,,---,0.03,VWS V14.01,2013-11-01 22:39:00,
2013-11-01 18:40:00,68.9,60.3,29.60,SSW,200,3.0,6.0,74,0.00,,---,0.03,VWS V14.01,2013-11-01 22:40:00,
2013-11-01 18:44:00,62.8,58.6,29.63,WSW,250,0.0,3.0,86,0.00,,---,0.03,VWS V14.01,2013-11-01 22:44:00,
2013-11-01 18:45:00,68.6,60.0,29.61,SW,216,1.0,4.0,74,0.00,,---,0.03,VWS V14.01,2013-11-01 22:45:00,
2013-11-01 18:49:00,62.3,58.4,29.63,WSW,250,1.0,3.0,87,0.00,,---,0.03,VWS V14.01,2013-11-01 22:49:00,
2013-11-01 18:50:00,68.4,60.2,29.61,SSW,204,2.0,5.0,75,0.00,,---,0.03,VWS V14.01,2013-11-01 22:50:00,
2013-11-01 18:54:00,61.8,58.2,29.63,WSW,250,1.0,2.0,88,0.00,,---,0.03,VWS V14.01,2013-11-01 22:54:00,
2013-11-01 18:55:00,68.2,60.0,29.61,SW,223,0.0,3.0,75,0.00,,---,0.03,VWS V14.01,2013-11-01 22:55:00,
2013-11-01 18:59:00,61.6,58.3,29.63,WSW,250,0.0,3.0,89,0.00,,---,0.03,VWS V14.01,2013-11-01 22:59:00,
2013-11-01 19:00:00,68.0,59.8,29.61,SSW,193,3.0,5.0,75,0.00,,---,0.03,VWS V14.01,2013-11-01 23:00:00,
2013-11-01 19:04:00,61.4,58.1,29.64,WSW,250,1.0,2.0,89,0.00,,---,0.03,VWS V14.01,2013-11-01 23:04:00,
2013-11-01 19:05:00,67.8,60.0,29.62,SSW,205,1.0,4.0,76,0.00,,---,0.03,VWS V14.01,2013-11-01 23:05:00,
2013-11-01 19:09:00,61.1,57.8,29.64,WSW,250,0.0,1.0,89,0.00,,---,0.03,VWS V14.01,2013-11-01 23:09:00,
2013-11-01 19:10:00,67.6,59.8,29.62,SSW,208,0.0,4.0,76,0.00,,---,0.03,VWS V14.01,2013-11-01 23:10:00,
2013-11-01 19:14:00,60.9,58.0,29.64,WSW,250,0.0,1.0,90,0.00,,---,0.03,VWS V14.01,2013-11-01 23:14:00,
2013-11-01 19:15:00,67.2,59.8,29.62,WSW,240,1.0,3.0,77,0.00,,---,0.03,VWS V14.01,2013-11-01 23:15:00,
2013-11-01 19:19:00,60.7,58.1,29.64,WSW,250,0.0,0.0,91,0.00,,---,0.03,VWS V14.01,2013-11-01 23:19:00,
2013-11-01 19:20:00,66.6,59.5,29.62,WSW,240,0.0,2.0,78,0.00,,---,0.03,VWS V14.01,2013-11-01 23:20:00,
2013-11-01 19:24:00,60.7,58.1,29.65,WSW,250,0.0,0.0,91,0.00,,---,0.03,VWS V14.01,2013-11-01 23:24:00,
2013-11-01 19:25:00,65.6,59.3,29.62,WSW,240,0.0,2.0,80,0.00,,---,0.03,VWS V14.01,2013-11-01 23:25:00,
2013-11-01 19:29:00,60.4,57.8,29.65,WSW,249,0.0,1.0,91,0.00,,---,0.03,VWS V14.01,2013-11-01 23:29:00,
2013-11-01 19:30:00,64.7,59.1,29.62,WSW,240,0.0,0.0,82,0.00,,---,0.03,VWS V14.01,2013-11-01 23:30:00,
2013-11-01 19:34:00,60.4,57.8,29.65,WSW,249,1.0,2.0,91,0.00,,---,0.03,VWS V14.01,2013-11-01 23:34:00,
2013-11-01 19:35:00,63.8,58.9,29.63,WSW,250,1.0,2.0,84,0.00,,---,0.03,VWS V14.01,2013-11-01 23:35:00,
2013-11-01 19:39:00,60.4,57.8,29.65,WSW,249,2.0,3.0,91,0.00,,---,0.03,VWS V14.01,2013-11-01 23:39:00,
2013-11-01 19:40:00,63.2,58.6,29.63,WSW,250,0.0,1.0,85,0.00,,---,0.03,VWS V14.01,2013-11-01 23:40:00,
2013-11-01 19:44:00,60.5,58.2,29.65,WSW,249,0.0,2.0,92,0.00,,---,0.03,VWS V14.01,2013-11-01 23:44:00,
2013-11-01 19:45:00,62.8,58.6,29.63,WSW,250,0.0,3.0,86,0.00,,---,0.03,VWS V14.01,2013-11-01 23:45:00,
2013-11-01 19:49:00,60.7,58.4,29.65,WSW,249,0.0,2.0,92,0.00,,---,0.03,VWS V14.01,2013-11-01 23:49:00,
2013-11-01 19:50:00,62.3,58.4,29.63,WSW,250,1.0,3.0,87,0.00,,---,0.03,VWS V14.01,2013-11-01 23:50:00,
2013-11-01 19:55:00,61.8,58.2,29.63,WSW,250,1.0,2.0,88,0.00,,---,0.03,VWS V14.01,2013-11-01 23:55:00,
2013-11-01 19:59:00,61.0,58.7,29.65,WSW,249,0.0,2.0,92,0.00,,---,0.03,VWS V14.01,2013-11-01 23:59:00,
2013-11-01 20:00:00,61.6,58.3,29.63,WSW,250,0.0,3.0,89,0.00,,---,0.03,VWS V14.01,2013-11-02 00:00:00,
2013-11-01 20:04:00,61.4,58.8,29.65,WSW,249,0.0,1.0,91,0.00,,---,0.03,VWS V14.01,2013-11-02 00:04:00,
2013-11-01 20:05:00,61.4,58.1,29.64,WSW,250,1.0,2.0,89,0.00,,---,0.03,VWS V14.01,2013-11-02 00:05:00,
2013-11-01 20:09:00,61.1,58.5,29.65,WSW,249,0.0,2.0,91,0.00,,---,0.03,VWS V14.01,2013-11-02 00:09:00,
2013-11-01 20:10:00,61.1,57.8,29.64,WSW,250,0.0,1.0,89,0.00,,---,0.03,VWS V14.01,2013-11-02 00:10:00,
2013-11-01 20:14:00,60.7,58.1,29.65,WSW,249,0.0,0.0,91,0.00,,---,0.03,VWS V14.01,2013-11-02 00:14:00,
2013-11-01 20:15:00,60.9,58.0,29.64,WSW,250,0.0,1.0,90,0.00,,---,0.03,VWS V14.01,2013-11-02 00:15:00,
2013-11-01 20:19:00,60.3,57.7,29.65,WSW,249,0.0,0.0,91,0.00,,---,0.03,VWS V14.01,2013-11-02 00:19:00,
2013-11-01 20:20:00,60.7,58.1,29.64,WSW,250,0.0,0.0,91,0.00,,---,0.03,VWS V14.01,2013-11-02 00:20:00,
2013-11-01 20:24:00,60.1,57.8,29.65,WSW,249,0.0,0.0,92,0.00,,---,0.03,VWS V14.01,2013-11-02 00:24:00,
2013-11-01 20:25:00,60.7,58.1,29.65,WSW,250,0.0,0.0,91,0.00,,---,0.03,VWS V14.01,2013-11-02 00:25:00,
2013-11-01 20:30:00,60.4,57.8,29.65,WSW,249,0.0,1.0,91,0.00,,---,0.03,VWS V14.01,2013-11-02 00:30:00,
2013-11-01 20:34:00,59.6,57.3,29.65,WSW,253,0.0,1.0,92,0.00,,---,0.03,VWS V14.01,2013-11-02 00:34:00,
2013-11-01 20:35:00,60.4,57.8,29.65,WSW,249,1.0,2.0,91,0.00,,---,0.03,VWS V14.01,2013-11-02 00:35:00,
2013-11-01 20:40:00,60.4,57.8,29.65,WSW,249,2.0,3.0,91,0.00,,---,0.03,VWS V14.01,2013-11-02 00:40:00,
2013-11-01 20:44:00,59.3,57.3,29.65,WSW,254,1.0,1.0,93,0.00,,---,0.03,VWS V14.01,2013-11-02 00:44:00,
2013-11-01 20:45:00,60.5,58.2,29.65,WSW,249,0.0,2.0,92,0.00,,---,0.03,VWS V14.01,2013-11-02 00:45:00,
2013-11-01 20:49:00,58.9,56.9,29.66,WSW,254,0.0,2.0,93,0.00,,---,0.03,VWS V14.01,2013-11-02 00:49:00,
2013-11-01 20:50:00,60.7,58.4,29.65,WSW,249,0.0,2.0,92,0.00,,---,0.03,VWS V14.01,2013-11-02 00:50:00,
2013-11-01 20:54:00,58.7,56.7,29.65,WSW,254,0.0,0.0,93,0.00,,---,0.03,VWS V14.01,2013-11-02 00:54:00,
2013-11-01 20:55:00,60.7,58.4,29.65,WSW,249,0.0,2.0,92,0.00,,---,0.03,VWS V14.01,2013-11-02 00:55:00,
2013-11-01 20:59:00,58.4,56.4,29.66,WSW,254,0.0,1.0,93,0.00,,---,0.03,VWS V14.01,2013-11-02 00:59:00,
2013-11-01 21:00:00,61.0,58.7,29.65,WSW,249,0.0,2.0,92,0.00,,---,0.03,VWS V14.01,2013-11-02 01:00:00,
2013-11-01 21:04:00,58.2,56.5,29.65,WSW,254,0.0,0.0,94,0.00,,---,0.03,VWS V14.01,2013-11-02 01:04:00,
2013-11-01 21:05:00,61.4,58.8,29.65,WSW,249,0.0,1.0,91,0.00,,---,0.03,VWS V14.01,2013-11-02 01:05:00,
2013-11-01 21:09:00,58.0,56.3,29.66,WSW,254,0.0,1.0,94,0.00,,---,0.03,VWS V14.01,2013-11-02 01:09:00,
2013-11-01 21:10:00,61.1,58.5,29.65,WSW,249,0.0,2.0,91,0.00,,---,0.03,VWS V14.01,2013-11-02 01:10:00,
2013-11-01 21:14:00,57.6,55.9,29.66,WSW,254,0.0,1.0,94,0.00,,---,0.03,VWS V14.01,2013-11-02 01:14:00,
2013-11-01 21:15:00,60.7,58.1,29.65,WSW,249,0.0,0.0,91,0.00,,---,0.03,VWS V14.01,2013-11-02 01:15:00,
2013-11-01 21:19:00,57.5,55.8,29.65,WSW,254,0.0,0.0,94,0.00,,---,0.03,VWS V14.01,2013-11-02 01:19:00,
2013-11-01 21:20:00,60.3,57.7,29.65,WSW,249,0.0,0.0,91,0.00,,---,0.03,VWS V14.01,2013-11-02 01:20:00,
2013-11-01 21:24:00,57.6,56.2,29.65,WSW,253,0.0,2.0,95,0.00,,---,0.03,VWS V14.01,2013-11-02 01:24:00,
2013-11-01 21:25:00,60.1,57.8,29.65,WSW,249,0.0,0.0,92,0.00,,---,0.03,VWS V14.01,2013-11-02 01:25:00,
2013-11-01 21:29:00,57.8,55.8,29.65,NW,310,2.0,6.0,93,0.00,,---,0.03,VWS V14.01,2013-11-02 01:29:00,
2013-11-01 21:30:00,59.9,57.6,29.65,WSW,253,0.0,2.0,92,0.00,,---,0.03,VWS V14.01,2013-11-02 01:30:00,
2013-11-01 21:34:00,58.6,54.4,29.65,WNW,291,4.0,7.0,86,0.00,,---,0.03,VWS V14.01,2013-11-02 01:34:00,
2013-11-01 21:35:00,59.6,57.3,29.65,WSW,253,0.0,1.0,92,0.00,,---,0.03,VWS V14.01,2013-11-02 01:35:00,
2013-11-01 21:39:00,59.6,52.7,29.65,SW,232,4.0,6.0,78,0.00,,---,0.03,VWS V14.01,2013-11-02 01:39:00,
2013-11-01 21:40:00,59.5,57.5,29.65,WSW,254,0.0,2.0,93,0.00,,---,0.03,VWS V14.01,2013-11-02 01:40:00,
2013-11-01 21:44:00,61.1,51.6,29.65,SW,227,2.0,6.0,71,0.00,,---,0.03,VWS V14.01,2013-11-02 01:44:00,
2013-11-01 21:45:00,59.3,57.3,29.65,WSW,254,1.0,1.0,93,0.00,,---,0.03,VWS V14.01,2013-11-02 01:45:00,
2013-11-01 21:49:00,61.6,50.1,29.65,WNW,290,5.0,5.0,66,0.00,,---,0.03,VWS V14.01,2013-11-02 01:49:00,
2013-11-01 21:50:00,58.9,56.9,29.66,WSW,254,0.0,2.0,93,0.00,,---,0.03,VWS V14.01,2013-11-02 01:50:00,
2013-11-01 21:54:00,61.7,48.6,29.65,WSW,244,5.0,8.0,62,0.00,,---,0.03,VWS V14.01,2013-11-02 01:54:00,
2013-11-01 21:55:00,58.7,56.7,29.65,WSW,254,0.0,0.0,93,0.00,,---,0.03,VWS V14.01,2013-11-02 01:55:00,
2013-11-01 21:59:00,62.6,46.7,29.65,WSW,250,2.0,8.0,56,0.00,,---,0.03,VWS V14.01,2013-11-02 01:59:00,
2013-11-01 22:00:00,58.4,56.4,29.66,WSW,254,0.0,1.0,93,0.00,,---,0.03,VWS V14.01,2013-11-02 02:00:00,
2013-11-01 22:04:00,62.7,45.8,29.65,NNE,27,4.0,8.0,54,0.00,,---,0.03,VWS V14.01,2013-11-02 02:04:00,
2013-11-01 22:05:00,58.2,56.5,29.65,WSW,254,0.0,0.0,94,0.00,,---,0.03,VWS V14.01,2013-11-02 02:05:00,
2013-11-01 22:09:00,63.3,44.9,29.66,NW,309,4.0,8.0,51,0.00,,---,0.03,VWS V14.01,2013-11-02 02:09:00,
2013-11-01 22:10:00,58.0,56.3,29.66,WSW,254,0.0,1.0,94,0.00,,---,0.03,VWS V14.01,2013-11-02 02:10:00,
2013-11-01 22:14:00,63.8,44.8,29.66,WNW,296,5.0,12.0,50,0.00,,---,0.03,VWS V14.01,2013-11-02 02:14:00,
2013-11-01 22:15:00,57.6,55.9,29.66,WSW,254,0.0,1.0,94,0.00,,---,0.03,VWS V14.01,2013-11-02 02:15:00,
2013-11-01 22:19:00,63.9,44.9,29.66,SSW,194,1.0,10.0,50,0.00,,---,0.03,VWS V14.01,2013-11-02 02:19:00,
2013-11-01 22:20:00,57.5,55.8,29.65,WSW,254,0.0,0.0,94,0.00,,---,0.03,VWS V14.01,2013-11-02 02:20:00,
2013-11-01 22:24:00,64.0,45.5,29.66,WSW,240,2.0,14.0,51,0.00,,---,0.03,VWS V14.01,2013-11-02 02:24:00,
2013-11-01 22:25:00,57.6,56.2,29.65,WSW,253,0.0,2.0,95,0.00,,---,0.03,VWS V14.01,2013-11-02 02:25:00,
2013-11-01 22:29:00,64.1,45.1,29.66,NNW,344,1.0,11.0,50,0.00,,---,0.03,VWS V14.01,2013-11-02 02:29:00,
2013-11-01 22:30:00,57.8,55.8,29.65,NW,310,2.0,6.0,93,0.00,,---,0.03,VWS V14.01,2013-11-02 02:30:00,
2013-11-01 22:35:00,58.6,54.4,29.65,WNW,291,4.0,7.0,86,0.00,,---,0.03,VWS V14.01,2013-11-02 02:35:00,
2013-11-01 22:39:00,62.8,51.3,29.66,South,175,5.0,7.0,66,0.00,,---,0.03,VWS V14.01,2013-11-02 02:39:00,
2013-11-01 22:40:00,59.6,52.7,29.65,SW,232,4.0,6.0,78,0.00,,---,0.03,VWS V14.01,2013-11-02 02:40:00,
2013-11-01 22:44:00,61.2,52.5,29.66,East,94,0.0,5.0,73,0.00,,---,0.03,VWS V14.01,2013-11-02 02:44:00,
2013-11-01 22:45:00,61.1,51.6,29.65,SW,227,2.0,6.0,71,0.00,,---,0.03,VWS V14.01,2013-11-02 02:45:00,
2013-11-01 22:49:00,60.3,52.7,29.66,East,83,0.0,4.0,76,0.00,,---,0.03,VWS V14.01,2013-11-02 02:49:00,
2013-11-01 22:50:00,61.6,50.2,29.65,WNW,290,5.0,5.0,66,0.00,,---,0.03,VWS V14.01,2013-11-02 02:50:00,
2013-11-01 22:54:00,59.8,51.9,29.66,East,83,0.0,0.0,75,0.00,,---,0.03,VWS V14.01,2013-11-02 02:54:00,
2013-11-01 22:55:00,61.7,48.6,29.65,WSW,244,5.0,8.0,62,0.00,,---,0.03,VWS V14.01,2013-11-02 02:55:00,
2013-11-01 22:59:00,59.4,51.1,29.66,East,83,0.0,0.0,74,0.00,,---,0.03,VWS V14.01,2013-11-02 02:59:00,
2013-11-01 23:00:00,62.6,46.7,29.65,WSW,250,2.0,8.0,56,0.00,,---,0.03,VWS V14.01,2013-11-02 03:00:00,
2013-11-01 23:04:00,58.3,50.8,29.66,East,84,1.0,3.0,76,0.00,,---,0.03,VWS V14.01,2013-11-02 03:04:00,
2013-11-01 23:05:00,62.7,45.8,29.65,NNE,27,4.0,8.0,54,0.00,,---,0.03,VWS V14.01,2013-11-02 03:05:00,
2013-11-01 23:09:00,58.2,51.4,29.66,East,83,3.0,3.0,78,0.00,,---,0.03,VWS V14.01,2013-11-02 03:09:00,
2013-11-01 23:10:00,63.3,44.9,29.66,NW,309,4.0,8.0,51,0.00,,---,0.03,VWS V14.01,2013-11-02 03:10:00,
2013-11-01 23:14:00,58.4,49.8,29.66,NE,54,4.0,7.0,73,0.00,,---,0.03,VWS V14.01,2013-11-02 03:14:00,
2013-11-01 23:15:00,63.8,44.8,29.66,WNW,296,5.0,12.0,50,0.00,,---,0.03,VWS V14.01,2013-11-02 03:15:00,
2013-11-01 23:19:00,59.5,50.5,29.66,SE,136,0.0,7.0,72,0.00,,---,0.03,VWS V14.01,2013-11-02 03:19:00,
2013-11-01 23:20:00,63.9,44.9,29.66,SSW,194,1.0,10.0,50,0.00,,---,0.03,VWS V14.01,2013-11-02 03:20:00,
2013-11-01 23:24:00,59.5,50.5,29.66,SSW,198,2.0,11.0,72,0.00,,---,0.03,VWS V14.01,2013-11-02 03:24:00,
2013-11-01 23:25:00,64.0,45.5,29.66,WSW,240,2.0,14.0,51,0.00,,---,0.03,VWS V14.01,2013-11-02 03:25:00,
2013-11-01 23:29:00,59.8,50.0,29.66,North,5,5.0,6.0,70,0.00,,---,0.03,VWS V14.01,2013-11-02 03:29:00,
2013-11-01 23:30:00,64.1,45.1,29.66,NNW,344,1.0,11.0,50,0.00,,---,0.03,VWS V14.01,2013-11-02 03:30:00,
2013-11-01 23:34:00,60.5,48.7,29.66,East,99,4.0,7.0,65,0.00,,---,0.03,VWS V14.01,2013-11-02 03:34:00,
2013-11-01 23:35:00,64.1,46.6,29.66,East,101,4.0,12.0,53,0.00,,---,0.03,VWS V14.01,2013-11-02 03:35:00,
2013-11-01 23:39:00,60.9,49.1,29.66,South,176,5.0,7.0,65,0.00,,---,0.03,VWS V14.01,2013-11-02 03:39:00,
2013-11-01 23:40:00,62.8,51.3,29.66,South,175,5.0,7.0,66,0.00,,---,0.03,VWS V14.01,2013-11-02 03:40:00,
2013-11-01 23:44:00,61.7,48.6,29.65,WSW,249,7.0,13.0,62,0.00,,---,0.03,VWS V14.01,2013-11-02 03:44:00,
2013-11-01 23:45:00,61.2,52.5,29.66,East,94,0.0,5.0,73,0.00,,---,0.03,VWS V14.01,2013-11-02 03:45:00,
2013-11-01 23:49:00,62.4,48.8,29.66,East,79,2.0,10.0,61,0.00,,---,0.03,VWS V14.01,2013-11-02 03:49:00,
2013-11-01 23:50:00,60.3,52.7,29.66,East,83,0.0,4.0,76,0.00,,---,0.03,VWS V14.01,2013-11-02 03:50:00,
2013-11-01 23:54:00,62.3,49.1,29.66,South,178,8.0,10.0,62,0.00,,---,0.03,VWS V14.01,2013-11-02 03:54:00,
2013-11-01 23:55:00,59.8,51.9,29.66,East,83,0.0,0.0,75,0.00,,---,0.03,VWS V14.01,2013-11-02 03:55:00,
2013-11-01 23:59:00,62.5,48.4,29.65,SW,229,4.0,13.0,60,0.00,,---,0.00,VWS V14.01,2013-11-02 03:59:00,